Shelby, NC

4:05 AM EDT on May 23, 2018 (GMT -0400)
Shelby Municipal

Weather History for KEHO - July, 2013

Change the Weather History Date:

Monday, July 22, 2013

  Actual Average (KHKY) Record (KHKY)
Temperature  
Mean Temperature 76 °F -  
Max Temperature 82 °F 87 °F 102 °F (1952)
Min Temperature 70 °F 68 °F 60 °F (1974)
Cooling Degree Days 11    
Growing Degree Days 26 (Base 50)    
Moisture  
Dew Point 71 °F    
Average Humidity 85    
Maximum Humidity 99    
Minimum Humidity 67    
Precipitation  
Precipitation 0.01 in - - ()
Sea Level Pressure  
Sea Level Pressure 29.94 in    
Wind  
Wind Speed 4 mph (SSW)    
Max Wind Speed 12 mph    
Max Gust Speed -    
Visibility 8 miles    
Events Fog , Rain    
Averages and records for this station are not official NWS values.
T = Trace of Precipitation, MM = Missing Value Source: NWS Daily Summary

Daily Weather History Graph

Daily Weather History Graph

Search for Another Location

Airport or City:

Astronomy

Jul. 22, 2013 Rise Set
Actual Time 6:28 AM EDT 8:37 PM EDT
Civil Twilight 5:59 AM EDT 9:05 PM EDT
Nautical Twilight 5:24 AM EDT 9:40 PM EDT
Astronomical Twilight 4:46 AM EDT 10:18 PM EDT
Moon 8:25 PM EDT (7/22) 6:20 AM EDT (7/22)
Length of Visible Light 15h 06m
Length of Day
14h 09m
Full, 100% of the Moon is Illuminated
Jul 22
Full
Jul 22
Full
Jul 29
Last Quarter
Aug 6
New
Aug 14
First Quarter

Hourly Weather History & Observations

Time (EDT) Temp. Heat Index Dew Point Humidity Pressure Visibility Wind Dir Wind Speed Gust Speed Precip Events Conditions
12:15 AM 72.5 °F - 71.8 °F 98% 30.04 in 4.0 mi SW 5.8 mph - N/A Rain Light Rain
12:35 AM 72.5 °F - 71.8 °F 98% 30.02 in 5.0 mi SW 3.5 mph - N/A Rain Light Rain
12:55 AM 72.0 °F - 71.6 °F 99% 30.01 in 7.0 mi West 3.5 mph - N/A   Mostly Cloudy
1:15 AM 72.3 °F - 71.6 °F 98% 30.00 in 7.0 mi Calm Calm - N/A   Scattered Clouds
1:35 AM 71.8 °F - 71.2 °F 98% 29.98 in 7.0 mi WNW 3.5 mph - N/A   Clear
1:55 AM 71.6 °F - 70.9 °F 98% 29.97 in 5.0 mi West 3.5 mph - N/A   Clear
2:15 AM 71.2 °F - 70.7 °F 98% 29.97 in 5.0 mi Calm Calm - N/A   Clear
2:35 AM 71.2 °F - 70.7 °F 98% 29.96 in 5.0 mi Calm Calm - N/A   Clear
2:55 AM 71.4 °F - 70.7 °F 98% 29.95 in 7.0 mi Calm Calm - N/A   Clear
3:15 AM 71.2 °F - 70.7 °F 98% 29.94 in 7.0 mi Calm Calm - N/A   Clear
3:35 AM 71.1 °F - 70.7 °F 99% 29.94 in 4.0 mi Calm Calm - N/A   Clear
3:55 AM 70.7 °F - 70.0 °F 98% 29.93 in 0.2 mi South 3.5 mph - N/A Fog Fog
4:15 AM 70.7 °F - 70.3 °F 99% 29.94 in 0.5 mi SSW 3.5 mph - N/A Fog Fog
4:35 AM 70.5 °F - 70.2 °F 99% 29.94 in 0.8 mi SW 3.5 mph - N/A   Overcast
4:55 AM 70.3 °F - 70.2 °F 99% 29.94 in 1.8 mi SSW 4.6 mph - N/A   Overcast
5:15 AM 70.0 °F - 69.8 °F 99% 29.94 in 1.8 mi SSW 4.6 mph - N/A   Overcast
5:35 AM 70.2 °F - 70.0 °F 99% 29.95 in 2.5 mi SSW 4.6 mph - N/A   Overcast
5:55 AM 70.5 °F - 70.2 °F 99% 29.96 in 7.0 mi SSW 5.8 mph - N/A   Overcast
6:15 AM 70.5 °F - 70.2 °F 99% 29.97 in 7.0 mi SW 4.6 mph - N/A   Overcast
6:35 AM 70.7 °F - 70.2 °F 98% 29.97 in 7.0 mi SSW 3.5 mph - N/A   Overcast
6:55 AM 70.7 °F - 70.2 °F 98% 29.97 in 7.0 mi Calm Calm - N/A   Overcast
7:15 AM 70.7 °F - 70.2 °F 98% 29.98 in 5.0 mi Calm Calm - N/A   Overcast
7:35 AM 70.7 °F - 70.2 °F 98% 29.98 in 7.0 mi Calm Calm - N/A   Overcast
7:55 AM 71.1 °F - 70.3 °F 98% 29.99 in 7.0 mi South 3.5 mph - N/A   Overcast
8:15 AM 71.1 °F - 70.2 °F 97% 29.99 in 7.0 mi South 3.5 mph - N/A   Overcast
8:35 AM 71.8 °F - 70.7 °F 96% 30.00 in 10.0 mi SW 3.5 mph - N/A   Overcast
8:55 AM 72.5 °F - 70.2 °F 92% 30.00 in 10.0 mi SW 3.5 mph - N/A   Overcast
9:35 AM 73.6 °F - 70.5 °F 90% 30.00 in 10.0 mi SSW 3.5 mph - N/A   Overcast
9:55 AM 74.3 °F - 70.2 °F 87% 29.99 in 10.0 mi Calm Calm - N/A   Overcast
10:55 AM 76.1 °F - 70.7 °F 83% 30.01 in 10.0 mi WSW 5.8 mph - N/A   Overcast
11:15 AM 76.1 °F - 70.2 °F 82% 30.01 in 10.0 mi SSW 4.6 mph - N/A   Mostly Cloudy
11:35 AM 77.2 °F - 70.0 °F 78% 30.00 in 10.0 mi Calm Calm - N/A   Mostly Cloudy
11:55 AM 77.9 °F - 69.8 °F 76% 30.00 in 10.0 mi Calm Calm - N/A   Scattered Clouds
12:15 PM 77.7 °F - 70.3 °F 78% 29.99 in 10.0 mi WSW 3.5 mph - N/A   Mostly Cloudy
12:35 PM 79.5 °F - 71.2 °F 76% 29.99 in 10.0 mi South 3.5 mph - N/A   Mostly Cloudy
12:55 PM 79.9 °F - 70.0 °F 72% 29.98 in 10.0 mi SSE 5.8 mph - N/A   Scattered Clouds
1:15 PM 80.4 °F 84.1 °F 70.9 °F 73% 29.98 in 10.0 mi South 5.8 mph - N/A   Scattered Clouds
1:35 PM 81.0 °F 84.7 °F 70.7 °F 71% 29.97 in 10.0 mi SSE 8.1 mph - N/A   Scattered Clouds
1:55 PM 80.6 °F 84.1 °F 70.5 °F 71% 29.96 in 10.0 mi SSW 5.8 mph - N/A   Mostly Cloudy
2:15 PM 81.3 °F 85.0 °F 70.2 °F 69% 29.94 in 10.0 mi SE 6.9 mph - N/A   Scattered Clouds
2:35 PM 81.9 °F 86.0 °F 70.9 °F 69% 29.94 in 10.0 mi SW 8.1 mph - N/A   Scattered Clouds
2:55 PM 82.2 °F 86.4 °F 70.5 °F 68% 29.94 in 10.0 mi South 6.9 mph - N/A   Scattered Clouds
3:15 PM 82.9 °F 87.5 °F 70.9 °F 67% 29.94 in 10.0 mi South 8.1 mph - N/A   Scattered Clouds
3:35 PM 82.9 °F 87.5 °F 71.1 °F 67% 29.93 in 10.0 mi SSW 8.1 mph - N/A   Scattered Clouds
3:55 PM 82.0 °F 86.3 °F 70.9 °F 69% 29.92 in 10.0 mi SSW 5.8 mph - N/A Rain Light Rain
4:15 PM 77.5 °F - 71.1 °F 80% 29.93 in 7.0 mi SW 11.5 mph - N/A Rain Light Rain
4:35 PM 74.5 °F - 69.4 °F 84% 29.92 in 7.0 mi SSW 8.1 mph - 0.01 in Rain Light Rain
4:55 PM 75.2 °F - 69.1 °F 81% 29.92 in 10.0 mi South 5.8 mph - 0.01 in   Scattered Clouds
5:15 PM 76.8 °F - 68.7 °F 76% 29.91 in 10.0 mi South 5.8 mph - N/A   Clear
5:35 PM 77.7 °F - 69.4 °F 76% 29.89 in 10.0 mi South 5.8 mph - N/A   Clear
5:55 PM 79.2 °F - 70.7 °F 75% 29.89 in 10.0 mi SSW 6.9 mph - N/A   Clear
6:15 PM 80.1 °F 83.7 °F 71.6 °F 75% 29.88 in 10.0 mi SSW 5.8 mph - N/A   Clear
6:35 PM 81.1 °F 85.6 °F 72.1 °F 74% 29.88 in 10.0 mi SSW 8.1 mph - N/A   Clear
6:55 PM 81.1 °F 85.6 °F 72.1 °F 74% 29.87 in 10.0 mi South 5.8 mph - N/A   Clear
7:15 PM 81.3 °F 85.9 °F 72.3 °F 74% 29.87 in 10.0 mi South 6.9 mph - N/A   Clear
7:35 PM 81.1 °F 85.8 °F 72.5 °F 75% 29.88 in 10.0 mi South 8.1 mph - N/A   Clear
7:55 PM 80.2 °F 84.2 °F 72.1 °F 76% 29.88 in 10.0 mi South 8.1 mph - N/A   Clear
8:15 PM 79.7 °F - 71.8 °F 77% 29.88 in 10.0 mi South 6.9 mph - N/A   Clear
8:35 PM 79.3 °F - 72.5 °F 79% 29.88 in 10.0 mi South 5.8 mph - N/A   Clear
8:55 PM 78.4 °F - 71.6 °F 79% 29.88 in 10.0 mi SSW 8.1 mph - N/A   Clear
9:15 PM 77.9 °F - 71.1 °F 79% 29.89 in 10.0 mi SSW 8.1 mph - N/A   Clear
9:35 PM 77.5 °F - 71.1 °F 80% 29.89 in 10.0 mi South 5.8 mph - N/A   Clear
9:55 PM 77.0 °F - 71.1 °F 82% 29.89 in 10.0 mi South 5.8 mph - N/A   Clear
10:15 PM 77.0 °F - 71.1 °F 82% 29.90 in 10.0 mi South 5.8 mph - N/A   Clear
10:35 PM 76.3 °F - 71.1 °F 84% 29.90 in 10.0 mi SSW 5.8 mph - N/A   Clear
10:55 PM 76.8 °F - 71.1 °F 82% 29.90 in 10.0 mi SSW 6.9 mph - N/A   Mostly Cloudy
11:15 PM 76.1 °F - 70.7 °F 83% 29.90 in 10.0 mi SSW 6.9 mph - N/A   Overcast
11:35 PM 76.3 °F - 70.7 °F 83% 29.90 in 10.0 mi SSW 8.1 mph - N/A   Overcast
11:55 PM 76.1 °F - 70.7 °F 83% 29.90 in 10.0 mi SW 5.8 mph - N/A   Mostly Cloudy